Weather History for KASH - October, 2011

Change the Weather History Date:

Friday, October 7, 2011

  Actual Average Record
Temperature  
Mean Temperature 48 °F -  
Max Temperature 63 °F 63 °F 140 °F (1999)
Min Temperature 34 °F 39 °F 25 °F (1965)
Degree Days  
Heating Degree Days 16    
Moisture  
Dew Point 37 °F    
Average Humidity 70    
Maximum Humidity 93    
Minimum Humidity 31    
Precipitation  
Precipitation 0.00 in - - ()
Sea Level Pressure  
Sea Level Pressure 30.43 in    
Wind  
Wind Speed 0 mph (North)    
Max Wind Speed 0 mph    
Max Gust Speed -    
Visibility 10 miles    
Events      
Averages and records for this station are not official NWS values.
T = Trace of Precipitation, MM = Missing Value Source: NWS Daily Summary

Daily Weather History Graph

Daily Weather History Graph

Search for Another Location

Airport or City:

Trip Planner

Search our weather history database for the weather conditions in past years. The results will help you decide how hot, cold, wet, or windy it might be!

Date:

Astronomy

Oct. 07, 2011 Rise Set
Actual Time 6:49 AM EDT 6:17 PM EDT
Civil Twilight 6:21 AM EDT 6:45 PM EDT
Nautical Twilight 5:48 AM EDT 7:18 PM EDT
Astronomical Twilight 5:15 AM EDT 7:51 PM EDT
Moon 4:03 PM EDT (10/7) 2:29 AM EDT (10/7)
Length of Visible Light 12h 24m
Length of Day
11h 27m
Waxing Gibbous, 83% of the Moon is Illuminated
Oct 7
Waxing Gibbous
Oct 11
Full
Oct 19
Last Quarter
Oct 26
New
Nov 2
First Quarter

Hourly Weather History & Observations

Time (EDT) Temp. Dew Point Humidity Pressure Visibility Wind Dir Wind Speed Gust Speed Precip Events Conditions
12:51 AM 36.9 °F 32.0 °F 83% 30.39 in 10.0 mi Calm Calm - N/A   Clear
1:51 AM 37.9 °F 34.0 °F 86% 30.40 in 10.0 mi Calm Calm - N/A   Clear
2:51 AM 38.8 °F 36.0 °F 89% 30.40 in 10.0 mi Calm Calm - N/A   Clear
3:51 AM 37.9 °F 34.9 °F 89% 30.40 in 10.0 mi Calm Calm - N/A   Clear
4:51 AM 34.9 °F 32.9 °F 92% 30.40 in 10.0 mi Calm Calm - N/A   Clear
5:51 AM 34.9 °F 32.9 °F 92% 30.42 in 10.0 mi Calm Calm - N/A   Clear
6:51 AM 34.9 °F 32.0 °F 89% 30.43 in 10.0 mi Calm Calm - N/A   Clear
7:51 AM 36.0 °F 34.0 °F 93% 30.45 in 10.0 mi Calm Calm - N/A   Clear
8:51 AM 41.0 °F 34.9 °F 79% 30.47 in 10.0 mi Calm Calm - N/A   Clear
9:51 AM 46.9 °F 36.9 °F 68% 30.48 in 10.0 mi Calm Calm - N/A   Clear
10:51 AM 52.9 °F 32.9 °F 47% 30.48 in 10.0 mi Calm Calm - N/A   Clear
11:51 AM 56.8 °F 32.9 °F 40% 30.47 in 10.0 mi Calm Calm - N/A   Clear
12:51 PM 59.0 °F 32.0 °F 36% 30.45 in 10.0 mi Calm Calm - N/A   Clear
1:51 PM 61.0 °F 32.9 °F 35% 30.44 in 10.0 mi Calm Calm - N/A   Clear
2:51 PM 63.0 °F 32.0 °F 31% 30.42 in 10.0 mi Calm Calm - 0.00 in   Clear
3:51 PM 63.0 °F 32.9 °F 32% 30.41 in 10.0 mi Calm Calm - N/A   Clear
4:51 PM 63.9 °F 37.9 °F 38% 30.41 in 10.0 mi Calm Calm - N/A   Clear
5:51 PM 56.8 °F 43.9 °F 62% 30.42 in 10.0 mi Calm Calm - N/A   Clear
6:51 PM 52.0 °F 43.9 °F 74% 30.42 in 10.0 mi Calm Calm - N/A   Clear
7:51 PM 50.0 °F 43.9 °F 79% 30.43 in 10.0 mi Calm Calm - N/A   Clear
8:51 PM 47.8 °F 43.9 °F 86% 30.43 in 10.0 mi Calm Calm - N/A   Clear
9:51 PM 46.9 °F 43.9 °F 89% 30.43 in 10.0 mi Calm Calm - N/A   Clear
10:51 PM 46.9 °F 43.0 °F 86% 30.42 in 10.0 mi Calm Calm - N/A   Clear
11:51 PM 45.0 °F 41.9 °F 89% 30.41 in 10.0 mi Calm Calm - N/A   Clear